This is the latest recevied weather packets stored in our database for station/object 2E0RGX-13. If no packets are shown the sender has not sent any weather packets the latest 10 day(s).
| Time | Temp. | Humidity | Pressure | Rain* | Wind** | Luminosity | Snow |
|---|---|---|---|---|---|---|---|
| 1777814836 | 18.33° C | 59% | 1005.6 hPa | 0 mm | - | 3 W/m² | - |
| 1777814532 | 18.33° C | 59% | 1005.7 hPa | 0 mm | - | 3 W/m² | - |
| 1777814228 | 18.33° C | 60% | 1006 hPa | 0 mm | - | 2 W/m² | - |
| 1777813924 | 18.33° C | 59% | 1006 hPa | 0 mm | - | 3 W/m² | - |
| 1777813620 | 18.33° C | 59% | 1006 hPa | 0 mm | - | 4 W/m² | - |
| 1777813316 | 18.89° C | 60% | 1006.1 hPa | 0 mm | - | 3 W/m² | - |
| 1777813012 | 17.78° C | 61% | 1006 hPa | 0 mm | - | 2 W/m² | - |
| 1777812708 | 18.33° C | 60% | 1005.8 hPa | 0 mm | - | 2 W/m² | - |
| 1777812404 | 18.33° C | 60% | 1005.9 hPa | 0 mm | - | 2 W/m² | - |
| 1777812100 | 17.78° C | 62% | 1005.9 hPa | 0 mm | - | 4 W/m² | - |
| 1777811796 | 17.78° C | 62% | 1005.9 hPa | 0 mm | - | 3 W/m² | - |
| 1777811492 | 17.78° C | 62% | 1005.9 hPa | 0 mm | - | 3 W/m² | - |
| 1777811188 | 18.33° C | 61% | 1005.8 hPa | 0 mm | - | 5 W/m² | - |
| 1777810884 | 17.78° C | 62% | 1005.9 hPa | 0 mm | - | 3 W/m² | - |
| 1777810580 | 17.78° C | 63% | 1006.1 hPa | 0 mm | - | 3 W/m² | - |
| 1777810276 | 17.22° C | 63% | 1006 hPa | 0 mm | - | 2 W/m² | - |
| 1777809972 | 18.33° C | 61% | 1006 hPa | 0 mm | - | 2 W/m² | - |
| 1777809668 | 17.78° C | 61% | 1006.1 hPa | 0 mm | - | 5 W/m² | - |
| 1777809364 | 18.33° C | 61% | 1005.9 hPa | 0 mm | - | 2 W/m² | - |
| 1777809060 | 18.33° C | 61% | 1005.9 hPa | 0 mm | - | 5 W/m² | - |
| 1777808756 | 17.22° C | 63% | 1006 hPa | 0 mm | - | 5 W/m² | - |
| 1777808452 | 17.22° C | 64% | 1006 hPa | 0 mm | - | 2 W/m² | - |
| 1777808148 | 17.78° C | 64% | 1006.2 hPa | 0 mm | - | 2 W/m² | - |
| 1777807844 | 17.22° C | 65% | 1006.1 hPa | 0 mm | - | 2 W/m² | - |
| 1777807540 | 17.22° C | 65% | 1006 hPa | 0 mm | - | 2 W/m² | - |
* Rain latest hour (hover to see other rain measurements)
** Current wind speed in m/s (hover to see current wind gust speed)